Time,TemperatureF,DewpointF,PressureIn,WindDirection,WindDirectionDegrees,WindSpeedMPH,WindSpeedGustMPH,Humidity,HourlyPrecipIn,Conditions,Clouds,dailyrainin,SoftwareType,DateUTC
2013-02-16 00:00:00,12.5,8.9,30.32,NNW,330,2.0,7.0,85,0.00,,SKC,0.00,VWS V14.01,2013-02-16 06:00:00,
2013-02-16 00:03:00,12.5,8.9,30.31,NW,321,2.0,4.0,85,0.00,,SKC,0.00,VWS V14.01,2013-02-16 06:03:00,
2013-02-16 00:08:00,12.5,8.9,30.31,NW,326,1.0,4.0,85,0.00,,SKC,0.00,VWS V14.01,2013-02-16 06:08:00,
2013-02-16 00:13:00,12.4,8.8,30.31,NW,316,1.0,4.0,85,0.00,,SKC,0.00,VWS V14.01,2013-02-16 06:13:00,
2013-02-16 00:18:00,12.4,8.8,30.31,NW,326,1.0,4.0,85,0.00,,SKC,0.00,VWS V14.01,2013-02-16 06:18:00,
2013-02-16 00:23:00,12.3,8.7,30.31,NW,319,1.0,5.0,85,0.00,,SKC,0.00,VWS V14.01,2013-02-16 06:23:00,
2013-02-16 00:28:00,12.3,8.7,30.31,NNW,328,2.0,5.0,85,0.00,,SKC,0.00,VWS V14.01,2013-02-16 06:28:00,
2013-02-16 00:30:00,12.3,8.9,30.31,West,281,1.0,5.0,86,0.00,,SKC,0.00,VWS V14.01,2013-02-16 06:30:00,
2013-02-16 00:33:00,12.3,8.9,30.31,WNW,301,3.0,4.0,86,0.00,,SKC,0.00,VWS V14.01,2013-02-16 06:33:00,
2013-02-16 00:38:00,12.3,8.9,30.31,NNW,329,1.0,4.0,86,0.00,,SKC,0.00,VWS V14.01,2013-02-16 06:38:00,
2013-02-16 00:43:00,12.3,8.9,30.31,NW,313,1.0,4.0,86,0.00,,SKC,0.00,VWS V14.01,2013-02-16 06:43:00,
2013-02-16 00:48:00,12.3,8.9,30.31,NNW,327,0.0,5.0,86,0.00,,SKC,0.00,VWS V14.01,2013-02-16 06:48:00,
2013-02-16 00:53:00,12.3,8.9,30.31,NW,324,1.0,5.0,86,0.00,,SKC,0.00,VWS V14.01,2013-02-16 06:53:00,
2013-02-16 00:58:00,12.2,8.8,30.31,NNW,329,2.0,5.0,86,0.00,,SKC,0.00,VWS V14.01,2013-02-16 06:58:00,
2013-02-16 01:00:00,12.2,8.8,30.31,NNW,333,2.0,5.0,86,0.00,,SKC,0.00,VWS V14.01,2013-02-16 07:00:00,
2013-02-16 01:03:00,12.2,8.8,30.31,NNE,16,2.0,3.0,86,0.00,,SKC,0.00,VWS V14.01,2013-02-16 07:03:00,
2013-02-16 01:08:00,12.2,8.8,30.30,NNW,333,1.0,4.0,86,0.00,,SKC,0.00,VWS V14.01,2013-02-16 07:08:00,
2013-02-16 01:13:00,12.1,8.7,30.30,NW,326,2.0,4.0,86,0.00,,SKC,0.00,VWS V14.01,2013-02-16 07:13:00,
2013-02-16 01:18:00,12.1,8.7,30.30,NNE,31,4.0,5.0,86,0.00,,SKC,0.00,VWS V14.01,2013-02-16 07:18:00,
2013-02-16 01:23:00,12.0,8.6,30.30,NW,316,1.0,5.0,86,0.00,,SKC,0.00,VWS V14.01,2013-02-16 07:23:00,
2013-02-16 01:28:00,12.0,8.6,30.30,NNW,328,2.0,5.0,86,0.00,,SKC,0.00,VWS V14.01,2013-02-16 07:28:00,
2013-02-16 01:30:00,11.9,8.5,30.30,NNW,329,2.0,6.0,86,0.00,,SKC,0.00,VWS V14.01,2013-02-16 07:30:00,
2013-02-16 01:33:00,11.9,8.5,30.30,NW,308,3.0,5.0,86,0.00,,SKC,0.00,VWS V14.01,2013-02-16 07:33:00,
2013-02-16 01:38:00,11.9,8.8,30.30,NW,304,2.0,5.0,87,0.00,,SKC,0.00,VWS V14.01,2013-02-16 07:38:00,
2013-02-16 01:43:00,11.9,8.8,30.30,NW,323,2.0,5.0,87,0.00,,SKC,0.00,VWS V14.01,2013-02-16 07:43:00,
2013-02-16 01:48:00,11.9,8.8,30.30,NW,311,3.0,5.0,87,0.00,,SKC,0.00,VWS V14.01,2013-02-16 07:48:00,
2013-02-16 01:53:00,11.9,8.8,30.30,NE,36,2.0,5.0,87,0.00,,SKC,0.00,VWS V14.01,2013-02-16 07:53:00,
2013-02-16 01:58:00,12.0,8.9,30.30,NW,314,3.0,5.0,87,0.00,,SKC,0.00,VWS V14.01,2013-02-16 07:58:00,
2013-02-16 02:00:00,12.1,9.0,30.29,NW,319,0.0,5.0,87,0.00,,SKC,0.00,VWS V14.01,2013-02-16 08:00:00,
2013-02-16 02:03:00,12.1,9.0,30.30,WNW,288,2.0,7.0,87,0.00,,SKC,0.00,VWS V14.01,2013-02-16 08:03:00,
2013-02-16 02:08:00,12.2,9.1,30.30,NNE,27,3.0,8.0,87,0.00,,SKC,0.00,VWS V14.01,2013-02-16 08:08:00,
2013-02-16 02:13:00,12.2,8.8,30.30,NW,305,4.0,11.0,86,0.00,,SKC,0.00,VWS V14.01,2013-02-16 08:13:00,
2013-02-16 02:18:00,12.1,8.7,30.30,NW,312,2.0,11.0,86,0.00,,SKC,0.00,VWS V14.01,2013-02-16 08:18:00,
2013-02-16 02:23:00,12.2,9.1,30.30,North,352,6.0,11.0,87,0.00,,SKC,0.00,VWS V14.01,2013-02-16 08:23:00,
2013-02-16 02:28:00,12.2,9.1,30.29,NNW,330,2.0,11.0,87,0.00,,SKC,0.00,VWS V14.01,2013-02-16 08:28:00,
2013-02-16 02:30:00,12.2,8.8,30.29,NW,316,2.0,11.0,86,0.00,,SKC,0.00,VWS V14.01,2013-02-16 08:30:00,
2013-02-16 02:33:00,12.3,8.9,30.29,NNE,13,4.0,5.0,86,0.00,,SKC,0.00,VWS V14.01,2013-02-16 08:33:00,
2013-02-16 02:38:00,12.3,8.9,30.29,NW,319,1.0,8.0,86,0.00,,SKC,0.00,VWS V14.01,2013-02-16 08:38:00,
2013-02-16 02:43:00,12.4,9.3,30.29,NW,325,1.0,8.0,87,0.00,,SKC,0.00,VWS V14.01,2013-02-16 08:43:00,
2013-02-16 02:48:00,12.5,9.4,30.29,NNW,335,3.0,8.0,87,0.00,,SKC,0.00,VWS V14.01,2013-02-16 08:48:00,
2013-02-16 02:53:00,12.5,9.4,30.29,NNW,340,0.0,8.0,87,0.00,,SKC,0.00,VWS V14.01,2013-02-16 08:53:00,
2013-02-16 02:58:00,12.6,9.5,30.29,North,1,3.0,8.0,87,0.00,,SKC,0.00,VWS V14.01,2013-02-16 08:58:00,
2013-02-16 03:00:00,12.6,9.5,30.28,North,349,4.0,8.0,87,0.00,,SKC,0.00,VWS V14.01,2013-02-16 09:00:00,
2013-02-16 03:03:00,12.6,9.5,30.28,West,276,0.0,4.0,87,0.00,,SKC,0.00,VWS V14.01,2013-02-16 09:03:00,
2013-02-16 03:08:00,12.7,9.6,30.28,North,9,2.0,4.0,87,0.00,,SKC,0.00,VWS V14.01,2013-02-16 09:08:00,
2013-02-16 03:13:00,12.7,9.3,30.28,NW,318,3.0,6.0,86,0.00,,SKC,0.00,VWS V14.01,2013-02-16 09:13:00,
2013-02-16 03:18:00,12.7,9.1,30.28,NNW,342,3.0,7.0,85,0.00,,SKC,0.00,VWS V14.01,2013-02-16 09:18:00,
2013-02-16 03:23:00,12.7,9.1,30.28,NW,326,0.0,7.0,85,0.00,,SKC,0.00,VWS V14.01,2013-02-16 09:23:00,
2013-02-16 03:28:00,12.8,9.1,30.28,NNW,336,2.0,7.0,85,0.00,,SKC,0.00,VWS V14.01,2013-02-16 09:28:00,
2013-02-16 03:30:00,12.9,9.5,30.28,NW,307,3.0,7.0,86,0.00,,SKC,0.00,VWS V14.01,2013-02-16 09:30:00,
2013-02-16 03:33:00,12.9,9.5,30.28,NW,326,2.0,6.0,86,0.00,,SKC,0.00,VWS V14.01,2013-02-16 09:33:00,
2013-02-16 03:37:00,12.9,9.2,30.28,NW,326,1.0,8.0,85,0.00,,SKC,0.00,VWS V14.01,2013-02-16 09:37:00,
2013-02-16 03:42:00,12.9,9.2,30.28,NNE,15,5.0,8.0,85,0.00,,SKC,0.00,VWS V14.01,2013-02-16 09:42:00,
2013-02-16 03:47:00,13.0,9.4,30.28,WNW,297,0.0,9.0,85,0.00,,SKC,0.00,VWS V14.01,2013-02-16 09:47:00,
2013-02-16 03:52:00,13.0,9.6,30.27,NNW,345,1.0,9.0,86,0.00,,SKC,0.00,VWS V14.01,2013-02-16 09:52:00,
2013-02-16 03:57:00,13.0,9.6,30.27,NW,324,1.0,9.0,86,0.00,,SKC,0.00,VWS V14.01,2013-02-16 09:57:00,
2013-02-16 04:00:00,13.1,9.7,30.27,NNW,342,3.0,9.0,86,0.00,,SKC,0.00,VWS V14.01,2013-02-16 10:00:00,
2013-02-16 04:02:00,13.1,9.7,30.27,NE,35,1.0,4.0,86,0.00,,SKC,0.00,VWS V14.01,2013-02-16 10:02:00,
2013-02-16 04:07:00,13.1,9.7,30.27,NNE,22,5.0,6.0,86,0.00,,SKC,0.00,VWS V14.01,2013-02-16 10:07:00,
2013-02-16 04:12:00,13.0,9.6,30.27,North,349,0.0,6.0,86,0.00,,SKC,0.00,VWS V14.01,2013-02-16 10:12:00,
2013-02-16 04:17:00,12.9,9.5,30.27,NNW,330,2.0,6.0,86,0.00,,SKC,0.00,VWS V14.01,2013-02-16 10:17:00,
2013-02-16 04:22:00,12.9,9.5,30.27,NW,311,0.0,6.0,86,0.00,,SKC,0.00,VWS V14.01,2013-02-16 10:22:00,
2013-02-16 04:27:00,12.9,9.5,30.27,North,356,1.0,6.0,86,0.00,,SKC,0.00,VWS V14.01,2013-02-16 10:27:00,
2013-02-16 04:30:00,12.9,9.5,30.26,WNW,302,2.0,6.0,86,0.00,,SKC,0.00,VWS V14.01,2013-02-16 10:30:00,
2013-02-16 04:32:00,13.0,9.6,30.26,NW,304,1.0,3.0,86,0.00,,SKC,0.00,VWS V14.01,2013-02-16 10:32:00,
2013-02-16 04:37:00,12.9,9.2,30.26,NNW,330,4.0,8.0,85,0.00,,SKC,0.00,VWS V14.01,2013-02-16 10:37:00,
2013-02-16 04:42:00,12.8,9.1,30.27,NE,39,1.0,8.0,85,0.00,,SKC,0.00,VWS V14.01,2013-02-16 10:42:00,
2013-02-16 04:47:00,12.8,9.1,30.26,NW,319,2.0,8.0,85,0.00,,SKC,0.00,VWS V14.01,2013-02-16 10:47:00,
2013-02-16 04:52:00,12.7,9.1,30.26,NW,326,0.0,8.0,85,0.00,,SKC,0.00,VWS V14.01,2013-02-16 10:52:00,
2013-02-16 04:57:00,12.7,9.1,30.26,NNW,332,1.0,8.0,85,0.00,,SKC,0.00,VWS V14.01,2013-02-16 10:57:00,
2013-02-16 05:00:00,12.8,9.1,30.26,NW,323,4.0,8.0,85,0.00,,SKC,0.00,VWS V14.01,2013-02-16 11:00:00,
2013-02-16 05:02:00,12.8,9.1,30.26,North,359,3.0,5.0,85,0.00,,SKC,0.00,VWS V14.01,2013-02-16 11:02:00,
2013-02-16 05:07:00,12.8,9.4,30.26,North,11,5.0,8.0,86,0.00,,SKC,0.00,VWS V14.01,2013-02-16 11:07:00,
2013-02-16 05:12:00,12.8,9.4,30.26,North,6,1.0,8.0,86,0.00,,SKC,0.00,VWS V14.01,2013-02-16 11:12:00,
2013-02-16 05:17:00,12.9,9.5,30.26,WNW,288,1.0,8.0,86,0.00,,SKC,0.00,VWS V14.01,2013-02-16 11:17:00,
2013-02-16 05:22:00,12.9,9.5,30.26,North,356,2.0,8.0,86,0.00,,SKC,0.00,VWS V14.01,2013-02-16 11:22:00,
2013-02-16 05:27:00,13.0,9.6,30.26,NNE,31,1.0,8.0,86,0.00,,SKC,0.00,VWS V14.01,2013-02-16 11:27:00,
2013-02-16 05:30:00,13.0,9.6,30.26,North,3,0.0,8.0,86,0.00,,SKC,0.00,VWS V14.01,2013-02-16 11:30:00,
2013-02-16 05:32:00,13.1,9.7,30.26,NNW,330,1.0,2.0,86,0.00,,SKC,0.00,VWS V14.01,2013-02-16 11:32:00,
2013-02-16 05:37:00,13.2,9.8,30.26,NNW,329,1.0,3.0,86,0.00,,SKC,0.00,VWS V14.01,2013-02-16 11:37:00,
2013-02-16 05:42:00,13.2,9.8,30.26,North,354,1.0,7.0,86,0.00,,SKC,0.00,VWS V14.01,2013-02-16 11:42:00,
2013-02-16 05:47:00,13.3,9.9,30.26,NNW,346,6.0,7.0,86,0.00,,SKC,0.00,VWS V14.01,2013-02-16 11:47:00,
2013-02-16 05:52:00,13.3,9.9,30.25,North,5,2.0,7.0,86,0.00,,SKC,0.00,VWS V14.01,2013-02-16 11:52:00,
2013-02-16 05:57:00,13.4,10.0,30.25,NNW,335,2.0,9.0,86,0.00,,SKC,0.00,VWS V14.01,2013-02-16 11:57:00,
2013-02-16 06:00:00,13.4,10.0,30.25,North,359,5.0,9.0,86,0.00,,SKC,0.00,VWS V14.01,2013-02-16 12:00:00,
2013-02-16 06:02:00,13.5,10.1,30.25,NW,305,1.0,5.0,86,0.00,,SKC,0.00,VWS V14.01,2013-02-16 12:02:00,
2013-02-16 06:07:00,13.5,10.1,30.25,NNE,18,4.0,6.0,86,0.00,,SKC,0.00,VWS V14.01,2013-02-16 12:07:00,
2013-02-16 06:12:00,13.6,10.2,30.25,NW,319,1.0,6.0,86,0.00,,SKC,0.00,VWS V14.01,2013-02-16 12:12:00,
2013-02-16 06:17:00,13.6,10.2,30.25,NW,305,1.0,6.0,86,0.00,,SKC,0.00,VWS V14.01,2013-02-16 12:17:00,
2013-02-16 06:22:00,13.7,10.3,30.25,North,349,1.0,6.0,86,0.00,,SKC,0.00,VWS V14.01,2013-02-16 12:22:00,
2013-02-16 06:27:00,13.7,10.3,30.25,North,356,0.0,6.0,86,0.00,,SKC,0.00,VWS V14.01,2013-02-16 12:27:00,
2013-02-16 06:30:00,13.7,10.3,30.25,North,358,1.0,6.0,86,0.00,,SKC,0.00,VWS V14.01,2013-02-16 12:30:00,
2013-02-16 06:32:00,13.7,10.3,30.25,North,5,1.0,2.0,86,0.00,,SKC,0.00,VWS V14.01,2013-02-16 12:32:00,
2013-02-16 06:37:00,13.7,10.3,30.25,NNW,348,0.0,2.0,86,0.00,,SKC,0.00,VWS V14.01,2013-02-16 12:37:00,
2013-02-16 06:42:00,13.7,10.3,30.25,NNE,22,0.0,2.0,86,0.00,,SKC,0.00,VWS V14.01,2013-02-16 12:42:00,
2013-02-16 06:47:00,13.7,10.3,30.25,WNW,301,1.0,2.0,86,0.00,,SKC,0.00,VWS V14.01,2013-02-16 12:47:00,
2013-02-16 06:52:00,13.7,10.3,30.25,West,270,1.0,2.0,86,0.00,,SKC,0.00,VWS V14.01,2013-02-16 12:52:00,
2013-02-16 06:57:00,13.7,10.3,30.25,WNW,302,2.0,3.0,86,0.00,,SKC,0.00,VWS V14.01,2013-02-16 12:57:00,
2013-02-16 07:00:00,13.7,10.3,30.25,NNE,13,1.0,3.0,86,0.00,,SKC,0.00,VWS V14.01,2013-02-16 13:00:00,
2013-02-16 07:02:00,13.8,10.4,30.25,WNW,298,0.0,2.0,86,0.00,,SKC,0.00,VWS V14.01,2013-02-16 13:02:00,
2013-02-16 07:07:00,13.8,10.4,30.25,NW,311,1.0,3.0,86,0.00,,SKC,0.00,VWS V14.01,2013-02-16 13:07:00,
2013-02-16 07:12:00,13.8,10.4,30.25,NNW,336,2.0,4.0,86,0.00,,SKC,0.00,VWS V14.01,2013-02-16 13:12:00,
2013-02-16 07:17:00,13.8,10.4,30.25,NE,34,1.0,4.0,86,0.00,,SKC,0.00,VWS V14.01,2013-02-16 13:17:00,
2013-02-16 07:22:00,13.9,10.5,30.25,NW,319,1.0,4.0,86,0.00,,SKC,0.00,VWS V14.01,2013-02-16 13:22:00,
2013-02-16 07:27:00,13.9,10.5,30.25,NW,314,1.0,4.0,86,0.00,,SKC,0.00,VWS V14.01,2013-02-16 13:27:00,
2013-02-16 07:30:00,13.9,10.5,30.25,North,359,0.0,4.0,86,0.00,,SKC,0.00,VWS V14.01,2013-02-16 13:30:00,
2013-02-16 07:32:00,14.0,10.6,30.25,NW,304,0.0,1.0,86,0.00,,SKC,0.00,VWS V14.01,2013-02-16 13:32:00,
2013-02-16 07:37:00,14.0,10.6,30.25,NW,318,1.0,3.0,86,0.00,,SKC,0.00,VWS V14.01,2013-02-16 13:37:00,
2013-02-16 07:42:00,14.1,10.7,30.25,NNW,333,0.0,3.0,86,0.00,,SKC,0.00,VWS V14.01,2013-02-16 13:42:00,
2013-02-16 07:47:00,14.1,10.7,30.25,WNW,300,1.0,3.0,86,0.00,,SKC,0.00,VWS V14.01,2013-02-16 13:47:00,
2013-02-16 07:52:00,14.2,10.8,30.25,NNW,333,1.0,3.0,86,0.00,,SKC,0.00,VWS V14.01,2013-02-16 13:52:00,
2013-02-16 07:57:00,14.3,10.9,30.26,NW,319,0.0,3.0,86,0.00,,SKC,0.00,VWS V14.01,2013-02-16 13:57:00,
2013-02-16 08:00:00,14.3,10.9,30.25,NW,304,1.0,4.0,86,0.00,,SKC,0.00,VWS V14.01,2013-02-16 14:00:00,
2013-02-16 08:02:00,14.4,11.0,30.26,WNW,291,2.0,2.0,86,0.00,,SKC,0.00,VWS V14.01,2013-02-16 14:02:00,
2013-02-16 08:07:00,14.5,11.3,30.26,NW,323,1.0,4.0,87,0.00,,SKC,0.00,VWS V14.01,2013-02-16 14:07:00,
2013-02-16 08:12:00,14.6,11.2,30.26,North,356,0.0,4.0,86,0.00,,SKC,0.00,VWS V14.01,2013-02-16 14:12:00,
2013-02-16 08:17:00,14.6,11.2,30.26,NNW,333,0.0,5.0,86,0.00,,SKC,0.00,VWS V14.01,2013-02-16 14:17:00,
2013-02-16 08:22:00,14.7,11.3,30.26,NW,326,0.0,5.0,86,0.00,,SKC,0.00,VWS V14.01,2013-02-16 14:22:00,
2013-02-16 08:27:00,14.7,11.3,30.26,NNW,329,2.0,5.0,86,0.00,,SKC,0.00,VWS V14.01,2013-02-16 14:27:00,
2013-02-16 08:30:00,14.8,11.4,30.26,NW,305,2.0,5.0,86,0.00,,SKC,0.00,VWS V14.01,2013-02-16 14:30:00,
2013-02-16 08:32:00,14.8,11.4,30.26,NW,304,1.0,3.0,86,0.00,,SKC,0.00,VWS V14.01,2013-02-16 14:32:00,
2013-02-16 08:37:00,14.8,11.6,30.25,WNW,287,1.0,5.0,87,0.00,,SKC,0.00,VWS V14.01,2013-02-16 14:37:00,
2013-02-16 08:42:00,14.8,11.4,30.25,NW,307,1.0,6.0,86,0.00,,SKC,0.00,VWS V14.01,2013-02-16 14:42:00,
2013-02-16 08:47:00,14.9,11.5,30.25,West,260,5.0,6.0,86,0.00,,SKC,0.00,VWS V14.01,2013-02-16 14:47:00,
2013-02-16 08:52:00,14.8,11.4,30.25,WNW,288,4.0,7.0,86,0.00,,SKC,0.00,VWS V14.01,2013-02-16 14:52:00,
2013-02-16 08:57:00,14.6,11.2,30.25,WSW,253,3.0,9.0,86,0.00,,SKC,0.00,VWS V14.01,2013-02-16 14:57:00,
2013-02-16 09:00:00,14.7,11.3,30.25,WNW,291,3.0,9.0,86,0.00,,SKC,0.00,VWS V14.01,2013-02-16 15:00:00,
2013-02-16 09:02:00,14.7,11.3,30.25,NNW,336,2.0,3.0,86,0.00,,SKC,0.00,VWS V14.01,2013-02-16 15:02:00,
2013-02-16 09:07:00,14.7,11.3,30.25,NW,317,3.0,5.0,86,0.00,,SKC,0.00,VWS V14.01,2013-02-16 15:07:00,
2013-02-16 09:12:00,14.7,11.3,30.25,WNW,297,2.0,5.0,86,0.00,,SKC,0.00,VWS V14.01,2013-02-16 15:12:00,
2013-02-16 09:17:00,14.8,11.1,30.25,NW,311,1.0,5.0,85,0.00,,SKC,0.00,VWS V14.01,2013-02-16 15:17:00,
2013-02-16 09:22:00,15.0,11.6,30.25,West,281,0.0,5.0,86,0.00,,SKC,0.00,VWS V14.01,2013-02-16 15:22:00,
2013-02-16 09:27:00,15.1,11.4,30.25,WNW,297,3.0,5.0,85,0.00,,SKC,0.00,VWS V14.01,2013-02-16 15:27:00,
2013-02-16 09:30:00,15.2,11.5,30.25,NW,325,0.0,5.0,85,0.00,,SKC,0.00,VWS V14.01,2013-02-16 15:30:00,
2013-02-16 09:32:00,15.2,11.5,30.25,NW,311,0.0,3.0,85,0.00,,SKC,0.00,VWS V14.01,2013-02-16 15:32:00,
2013-02-16 09:37:00,15.2,11.2,30.25,West,273,1.0,5.0,84,0.00,,SKC,0.00,VWS V14.01,2013-02-16 15:37:00,
2013-02-16 09:42:00,15.3,11.3,30.24,WNW,290,3.0,6.0,84,0.00,,SKC,0.00,VWS V14.01,2013-02-16 15:42:00,
2013-02-16 09:47:00,15.4,11.2,30.24,West,272,2.0,6.0,83,0.00,,SKC,0.00,VWS V14.01,2013-02-16 15:47:00,
2013-02-16 09:52:00,15.8,11.6,30.24,WSW,246,2.0,6.0,83,0.00,,SKC,0.00,VWS V14.01,2013-02-16 15:52:00,
2013-02-16 09:57:00,16.1,11.9,30.24,WNW,282,0.0,6.0,83,0.00,,SKC,0.00,VWS V14.01,2013-02-16 15:57:00,
2013-02-16 10:00:00,16.4,12.4,30.24,NNW,336,3.0,6.0,84,0.00,,SKC,0.00,VWS V14.01,2013-02-16 16:00:00,
2013-02-16 10:02:00,16.5,12.2,30.24,WNW,297,1.0,3.0,83,0.00,,SKC,0.00,VWS V14.01,2013-02-16 16:02:00,
2013-02-16 10:07:00,16.8,12.3,30.24,NW,304,2.0,3.0,82,0.00,,SKC,0.00,VWS V14.01,2013-02-16 16:07:00,
2013-02-16 10:12:00,16.9,12.1,30.24,WSW,238,2.0,6.0,81,0.00,,SKC,0.00,VWS V14.01,2013-02-16 16:12:00,
2013-02-16 10:17:00,17.0,12.7,30.24,West,270,2.0,6.0,83,0.00,,SKC,0.00,VWS V14.01,2013-02-16 16:17:00,
2013-02-16 10:22:00,17.2,12.7,30.23,WSW,257,4.0,6.0,82,0.00,,SKC,0.00,VWS V14.01,2013-02-16 16:22:00,
2013-02-16 10:27:00,17.1,12.6,30.23,West,264,3.0,6.0,82,0.00,,SKC,0.00,VWS V14.01,2013-02-16 16:27:00,
2013-02-16 10:30:00,17.0,12.5,30.23,West,259,3.0,6.0,82,0.00,,SKC,0.00,VWS V14.01,2013-02-16 16:30:00,
2013-02-16 10:32:00,16.9,12.4,30.23,SW,236,0.0,3.0,82,0.00,,SKC,0.00,VWS V14.01,2013-02-16 16:32:00,
2013-02-16 10:37:00,17.1,12.8,30.23,WSW,250,1.0,4.0,83,0.00,,SKC,0.00,VWS V14.01,2013-02-16 16:37:00,
2013-02-16 10:42:00,17.7,13.4,30.23,WNW,284,1.0,5.0,83,0.00,,SKC,0.00,VWS V14.01,2013-02-16 16:42:00,
2013-02-16 10:47:00,17.9,13.4,30.23,West,278,2.0,5.0,82,0.00,,SKC,0.00,VWS V14.01,2013-02-16 16:47:00,
2013-02-16 10:52:00,17.9,13.4,30.22,South,186,2.0,6.0,82,0.00,,SKC,0.00,VWS V14.01,2013-02-16 16:52:00,
2013-02-16 10:57:00,17.9,13.4,30.22,West,277,1.0,6.0,82,0.00,,SKC,0.00,VWS V14.01,2013-02-16 16:57:00,
2013-02-16 11:00:00,17.8,13.2,30.22,West,276,0.0,6.0,82,0.00,,SKC,0.00,VWS V14.01,2013-02-16 17:00:00,
2013-02-16 11:02:00,17.9,13.4,30.22,NNW,327,0.0,2.0,82,0.00,,SKC,0.00,VWS V14.01,2013-02-16 17:02:00,
2013-02-16 11:07:00,18.6,14.3,30.22,WNW,290,1.0,3.0,83,0.00,,SKC,0.00,VWS V14.01,2013-02-16 17:07:00,
2013-02-16 11:12:00,19.1,14.5,30.22,West,259,7.0,7.0,82,0.00,,SKC,0.00,VWS V14.01,2013-02-16 17:12:00,
2013-02-16 11:17:00,19.1,14.0,30.22,SW,232,2.0,7.0,80,0.00,,SKC,0.00,VWS V14.01,2013-02-16 17:17:00,
2013-02-16 11:22:00,19.5,14.9,30.22,SW,218,4.0,8.0,82,0.00,,SKC,0.00,VWS V14.01,2013-02-16 17:22:00,
2013-02-16 11:27:00,19.6,14.7,30.22,SSW,204,4.0,8.0,81,0.00,,SKC,0.00,VWS V14.01,2013-02-16 17:27:00,
2013-02-16 11:30:00,20.0,15.7,30.22,WNW,298,2.0,8.0,83,0.00,,SKC,0.00,VWS V14.01,2013-02-16 17:30:00,
2013-02-16 11:32:00,20.1,15.5,30.22,SW,229,5.0,7.0,82,0.00,,SKC,0.00,VWS V14.01,2013-02-16 17:32:00,
2013-02-16 11:37:00,20.0,14.8,30.22,WSW,243,2.0,7.0,80,0.00,,SKC,0.00,VWS V14.01,2013-02-16 17:37:00,
2013-02-16 11:42:00,20.5,15.9,30.22,SSW,195,5.0,7.0,82,0.00,,SKC,0.00,VWS V14.01,2013-02-16 17:42:00,
2013-02-16 11:47:00,20.8,15.6,30.22,West,271,3.0,7.0,80,0.00,,SKC,0.00,VWS V14.01,2013-02-16 17:47:00,
2013-02-16 11:52:00,20.6,15.4,30.21,WNW,288,2.0,7.0,80,0.00,,SKC,0.00,VWS V14.01,2013-02-16 17:52:00,
2013-02-16 11:57:00,20.5,15.3,30.21,SW,232,3.0,7.0,80,0.00,,SKC,0.00,VWS V14.01,2013-02-16 17:57:00,
2013-02-16 12:00:00,20.5,15.3,30.21,SW,226,3.0,7.0,80,0.00,,SKC,0.00,VWS V14.01,2013-02-16 18:00:00,
2013-02-16 12:02:00,20.4,15.5,30.21,NW,307,1.0,4.0,81,0.00,,SKC,0.00,VWS V14.01,2013-02-16 18:02:00,
2013-02-16 12:07:00,20.7,16.1,30.21,SW,215,2.0,5.0,82,0.00,,SKC,0.00,VWS V14.01,2013-02-16 18:07:00,
2013-02-16 12:30:00,22.0,17.1,30.20,SSE,156,1.0,6.0,81,0.00,,SKC,0.00,VWS V14.01,2013-02-16 18:30:00,
2013-02-16 13:00:00,21.9,17.0,30.19,WNW,283,2.0,7.0,81,0.00,,SKC,0.00,VWS V14.01,2013-02-16 19:00:00,
2013-02-16 13:30:00,22.7,16.9,30.19,NNW,338,0.0,6.0,78,0.00,,SKC,0.00,VWS V14.01,2013-02-16 19:30:00,
2013-02-16 14:00:00,24.8,18.0,30.18,SW,225,1.0,4.0,75,0.00,,SKC,0.00,VWS V14.01,2013-02-16 20:00:00,
2013-02-16 14:30:00,24.6,17.8,30.17,WSW,255,4.0,9.0,75,0.00,,SKC,0.00,VWS V14.01,2013-02-16 20:30:00,
2013-02-16 15:00:00,24.9,18.1,30.16,WNW,287,2.0,8.0,75,0.00,,SKC,0.00,VWS V14.01,2013-02-16 21:00:00,
2013-02-16 15:30:00,26.6,18.5,30.16,NNW,343,0.0,7.0,71,0.00,,SKC,0.00,VWS V14.01,2013-02-16 21:30:00,
2013-02-16 16:00:00,27.3,18.1,30.16,SW,219,0.0,3.0,68,0.00,,SKC,0.00,VWS V14.01,2013-02-16 22:00:00,
2013-02-16 16:30:00,28.0,18.1,30.16,WNW,297,1.0,4.0,66,0.00,,SKC,0.00,VWS V14.01,2013-02-16 22:30:00,
2013-02-16 17:00:00,28.4,18.1,30.16,WSW,242,1.0,3.0,65,0.00,,SKC,0.00,VWS V14.01,2013-02-16 23:00:00,
2013-02-16 17:30:00,25.9,17.5,30.17,South,188,1.0,3.0,70,0.00,,SKC,0.00,VWS V14.01,2013-02-16 23:30:00,
2013-02-16 18:00:00,24.1,17.0,30.17,SW,221,0.0,2.0,74,0.00,,SKC,0.00,VWS V14.01,2013-02-17 00:00:00,
2013-02-16 18:30:00,22.7,17.2,30.17,ESE,119,0.0,1.0,79,0.00,,SKC,0.00,VWS V14.01,2013-02-17 00:30:00,
2013-02-16 19:00:00,23.8,18.5,30.17,East,100,0.0,2.0,80,0.00,,SKC,0.00,VWS V14.01,2013-02-17 01:00:00,
2013-02-16 19:30:00,23.6,18.9,30.17,ESE,113,0.0,3.0,82,0.00,,SKC,0.00,VWS V14.01,2013-02-17 01:30:00,
2013-02-16 20:00:00,23.0,18.9,30.16,ESE,108,0.0,3.0,84,0.00,,SKC,0.00,VWS V14.01,2013-02-17 02:00:00,
2013-02-16 20:30:00,22.9,19.1,30.15,ESE,105,2.0,4.0,85,0.00,,SKC,0.00,VWS V14.01,2013-02-17 02:30:00,
2013-02-16 21:00:00,22.9,19.1,30.15,East,94,5.0,7.0,85,0.00,,SKC,0.00,VWS V14.01,2013-02-17 03:00:00,
2013-02-16 21:17:00,22.8,19.0,30.15,ESE,123,5.0,10.0,85,0.00,,SKC,0.00,VWS V14.01,2013-02-17 03:17:00,
2013-02-16 21:30:00,22.3,18.8,30.15,SE,138,5.0,10.0,86,0.00,,SKC,0.00,VWS V14.01,2013-02-17 03:30:00,
2013-02-16 21:32:00,22.3,18.8,30.15,SE,142,3.0,5.0,86,0.00,,SKC,0.00,VWS V14.01,2013-02-17 03:32:00,
2013-02-16 21:37:00,22.1,18.6,30.15,SE,129,5.0,8.0,86,0.00,,SKC,0.00,VWS V14.01,2013-02-17 03:37:00,
2013-02-16 21:42:00,22.0,18.5,30.15,SE,132,5.0,8.0,86,0.00,,SKC,0.00,VWS V14.01,2013-02-17 03:42:00,
2013-02-16 21:47:00,21.8,18.3,30.15,SE,131,4.0,8.0,86,0.00,,SKC,0.00,VWS V14.01,2013-02-17 03:47:00,
2013-02-16 21:52:00,21.6,18.3,30.15,SE,131,6.0,8.0,87,0.00,,SKC,0.00,VWS V14.01,2013-02-17 03:52:00,
2013-02-16 21:57:00,21.5,18.2,30.14,SE,128,5.0,8.0,87,0.00,,SKC,0.00,VWS V14.01,2013-02-17 03:57:00,
2013-02-16 22:00:00,21.4,18.1,30.15,SE,129,5.0,8.0,87,0.00,,SKC,0.00,VWS V14.01,2013-02-17 04:00:00,
2013-02-16 22:02:00,21.3,18.0,30.14,SE,139,4.0,6.0,87,0.00,,SKC,0.00,VWS V14.01,2013-02-17 04:02:00,
2013-02-16 22:07:00,21.2,17.9,30.14,SE,132,4.0,6.0,87,0.00,,SKC,0.00,VWS V14.01,2013-02-17 04:07:00,
2013-02-16 22:12:00,21.0,17.8,30.14,SE,135,6.0,7.0,87,0.00,,SKC,0.00,VWS V14.01,2013-02-17 04:12:00,
2013-02-16 22:17:00,20.9,17.6,30.14,SE,138,6.0,7.0,87,0.00,,SKC,0.00,VWS V14.01,2013-02-17 04:17:00,
2013-02-16 22:22:00,20.9,17.6,30.14,SSE,149,4.0,9.0,87,0.00,,SKC,0.00,VWS V14.01,2013-02-17 04:22:00,
2013-02-16 22:27:00,20.8,17.3,30.14,SE,145,3.0,9.0,86,0.00,,SKC,0.00,VWS V14.01,2013-02-17 04:27:00,
2013-02-16 22:30:00,20.8,17.3,30.14,ESE,119,4.0,9.0,86,0.00,,SKC,0.00,VWS V14.01,2013-02-17 04:30:00,
2013-02-16 22:32:00,20.7,17.2,30.14,SE,136,4.0,5.0,86,0.00,,SKC,0.00,VWS V14.01,2013-02-17 04:32:00,
2013-02-16 22:37:00,20.6,17.1,30.14,SSE,154,4.0,7.0,86,0.00,,SKC,0.00,VWS V14.01,2013-02-17 04:37:00,
2013-02-16 22:42:00,20.5,17.0,30.14,SE,139,5.0,7.0,86,0.00,,SKC,0.00,VWS V14.01,2013-02-17 04:42:00,
2013-02-16 22:47:00,20.4,17.2,30.14,SE,128,4.0,7.0,87,0.00,,SKC,0.00,VWS V14.01,2013-02-17 04:47:00,
2013-02-16 22:52:00,20.2,17.0,30.14,SE,129,4.0,7.0,87,0.00,,SKC,0.00,VWS V14.01,2013-02-17 04:52:00,
2013-02-16 22:57:00,20.0,16.8,30.15,SE,127,3.0,7.0,87,0.00,,SKC,0.00,VWS V14.01,2013-02-17 04:57:00,
2013-02-16 23:00:00,20.0,16.8,30.14,SE,134,5.0,7.0,87,0.00,,SKC,0.00,VWS V14.01,2013-02-17 05:00:00,
2013-02-16 23:05:00,19.9,16.7,30.14,SE,142,6.0,6.0,87,0.00,,SKC,0.00,VWS V14.01,2013-02-17 05:05:00,
2013-02-16 23:10:00,19.9,16.7,30.14,ESE,115,5.0,7.0,87,0.00,,SKC,0.00,VWS V14.01,2013-02-17 05:10:00,
2013-02-16 23:15:00,19.8,16.6,30.14,SE,134,6.0,7.0,87,0.00,,SKC,0.00,VWS V14.01,2013-02-17 05:15:00,
2013-02-16 23:20:00,19.6,16.4,30.14,ESE,113,5.0,8.0,87,0.00,,SKC,0.00,VWS V14.01,2013-02-17 05:20:00,
2013-02-16 23:25:00,19.4,16.4,30.13,SE,131,5.0,8.0,88,0.00,,SKC,0.00,VWS V14.01,2013-02-17 05:25:00,
2013-02-16 23:30:00,19.4,16.4,30.13,ESE,121,5.0,8.0,88,0.00,,SKC,0.00,VWS V14.01,2013-02-17 05:30:00,
2013-02-16 23:35:00,19.4,16.4,30.13,ESE,117,6.0,8.0,88,0.00,,SKC,0.00,VWS V14.01,2013-02-17 05:35:00,
2013-02-16 23:40:00,19.4,16.4,30.13,ESE,122,4.0,8.0,88,0.00,,SKC,0.00,VWS V14.01,2013-02-17 05:40:00,
2013-02-16 23:45:00,19.4,16.2,30.13,SE,124,6.0,8.0,87,0.00,,SKC,0.00,VWS V14.01,2013-02-17 05:45:00,
2013-02-16 23:50:00,19.3,16.3,30.13,SE,124,7.0,9.0,88,0.00,,SKC,0.00,VWS V14.01,2013-02-17 05:50:00,
2013-02-16 23:55:00,19.3,16.1,30.13,SE,131,7.0,10.0,87,0.00,,SKC,0.00,VWS V14.01,2013-02-17 05:55:00,